Time,TemperatureF,DewpointF,PressureIn,WindDirection,WindDirectionDegrees,WindSpeedMPH,WindSpeedGustMPH,Humidity,HourlyPrecipIn,Conditions,Clouds,dailyrainin,SoftwareType,DateUTC
2013-02-12 00:01:00,21.0,19.0,29.84,NW,322,0.0,4.0,90,0.00,,,0.00,,2013-02-12 06:01:00,
2013-02-12 00:12:00,20.0,18.0,29.84,WNW,287,0.0,2.0,91,0.00,,,0.00,,2013-02-12 06:12:00,
2013-02-12 00:21:00,20.0,18.0,29.84,WNW,287,0.0,2.0,91,0.00,,,0.00,,2013-02-12 06:21:00,
2013-02-12 00:32:00,20.0,18.0,29.85,NNW,340,0.0,2.0,90,0.00,,,0.00,,2013-02-12 06:32:00,
2013-02-12 00:42:00,20.0,18.0,29.86,NNW,330,1.0,5.0,90,0.00,,,0.00,,2013-02-12 06:42:00,
2013-02-12 00:51:00,20.0,18.0,29.86,NNW,330,1.0,5.0,90,0.00,,,0.00,,2013-02-12 06:51:00,
2013-02-12 01:01:00,20.0,18.0,29.86,NW,318,0.0,5.0,90,0.00,,,0.00,,2013-02-12 07:01:00,
2013-02-12 01:11:00,20.0,18.0,29.86,NW,318,0.0,5.0,90,0.00,,,0.00,,2013-02-12 07:11:00,
2013-02-12 01:21:00,20.0,18.0,29.87,NW,311,0.0,3.0,90,0.00,,,0.00,,2013-02-12 07:21:00,
2013-02-12 01:31:00,19.0,17.0,29.86,WSW,255,0.0,2.0,90,0.00,,,0.00,,2013-02-12 07:31:00,
2013-02-12 01:41:00,19.0,17.0,29.86,WSW,255,0.0,2.0,90,0.00,,,0.00,,2013-02-12 07:41:00,
2013-02-12 01:51:00,19.0,17.0,29.87,WNW,283,0.0,4.0,90,0.00,,,0.00,,2013-02-12 07:51:00,
2013-02-12 02:01:00,18.0,16.0,29.88,WNW,297,0.0,2.0,91,0.00,,,0.00,,2013-02-12 08:01:00,
2013-02-12 02:11:00,18.0,16.0,29.88,WNW,297,0.0,2.0,91,0.00,,,0.00,,2013-02-12 08:11:00,
2013-02-12 02:21:00,17.0,15.0,29.88,WNW,299,0.0,2.0,92,0.00,,,0.00,,2013-02-12 08:21:00,
2013-02-12 02:32:00,16.0,14.0,29.88,WSW,257,0.0,0.0,93,0.00,,,0.00,,2013-02-12 08:32:00,
2013-02-12 02:41:00,16.0,14.0,29.88,WSW,257,0.0,0.0,93,0.00,,,0.00,,2013-02-12 08:41:00,
2013-02-12 02:52:00,16.0,14.0,29.88,WSW,257,0.0,0.0,93,0.00,,,0.00,,2013-02-12 08:52:00,
2013-02-12 03:01:00,15.0,13.0,29.88,WSW,257,0.0,0.0,92,0.00,,,0.00,,2013-02-12 09:01:00,
2013-02-12 03:11:00,15.0,13.0,29.88,WSW,257,0.0,0.0,92,0.00,,,0.00,,2013-02-12 09:11:00,
2013-02-12 03:21:00,14.0,12.0,29.89,WSW,257,0.0,0.0,92,0.00,,,0.00,,2013-02-12 09:21:00,
2013-02-12 03:32:00,14.0,13.0,29.89,WSW,257,0.0,0.0,94,0.00,,,0.00,,2013-02-12 09:32:00,
2013-02-12 03:41:00,14.0,13.0,29.89,WSW,257,0.0,0.0,94,0.00,,,0.00,,2013-02-12 09:41:00,
2013-02-12 03:51:00,15.0,14.0,29.89,WNW,283,0.0,1.0,95,0.00,,,0.00,,2013-02-12 09:51:00,
2013-02-12 04:01:00,16.0,15.0,29.90,WNW,284,0.0,1.0,94,0.00,,,0.00,,2013-02-12 10:01:00,
2013-02-12 04:11:00,17.0,16.0,29.91,SW,219,0.0,1.0,94,0.00,,,0.00,,2013-02-12 10:11:00,
2013-02-12 04:21:00,17.0,16.0,29.91,SW,219,0.0,1.0,94,0.00,,,0.00,,2013-02-12 10:21:00,
2013-02-12 04:31:00,17.0,15.0,29.91,West,276,0.0,1.0,93,0.00,,,0.00,,2013-02-12 10:31:00,
2013-02-12 04:43:00,17.0,15.0,29.91,West,276,0.0,1.0,93,0.00,,,0.00,,2013-02-12 10:43:00,
2013-02-12 04:51:00,18.0,16.0,29.91,NNW,334,0.0,3.0,93,0.00,,,0.00,,2013-02-12 10:51:00,
2013-02-12 05:01:00,19.0,17.0,29.92,NW,316,0.0,4.0,92,0.00,,,0.00,,2013-02-12 11:01:00,
2013-02-12 05:11:00,19.0,17.0,29.92,NW,316,0.0,4.0,92,0.00,,,0.00,,2013-02-12 11:11:00,
2013-02-12 05:21:00,19.0,17.0,29.92,North,355,0.0,2.0,91,0.00,,,0.00,,2013-02-12 11:21:00,
2013-02-12 05:32:00,19.0,17.0,29.93,NW,314,0.0,1.0,91,0.00,,,0.00,,2013-02-12 11:32:00,
2013-02-12 05:41:00,19.0,17.0,29.93,NW,314,0.0,1.0,91,0.00,,,0.00,,2013-02-12 11:41:00,
2013-02-12 05:52:00,19.0,17.0,29.93,WNW,301,0.0,3.0,91,0.00,,,0.00,,2013-02-12 11:52:00,
2013-02-12 06:01:00,19.0,17.0,29.93,WNW,302,0.0,3.0,90,0.00,,,0.00,,2013-02-12 12:01:00,
2013-02-12 06:11:00,19.0,17.0,29.93,WNW,302,0.0,3.0,90,0.00,,,0.00,,2013-02-12 12:11:00,
2013-02-12 06:21:00,19.0,16.0,29.93,NW,325,0.0,3.0,89,0.00,,,0.00,,2013-02-12 12:21:00,
2013-02-12 06:32:00,19.0,16.0,29.94,NNW,329,0.0,2.0,89,0.00,,,0.00,,2013-02-12 12:32:00,
2013-02-12 06:42:00,19.0,16.0,29.94,NNW,329,0.0,2.0,89,0.00,,,0.00,,2013-02-12 12:42:00,
2013-02-12 06:52:00,19.0,17.0,29.95,SW,231,0.0,1.0,90,0.00,,,0.00,,2013-02-12 12:52:00,
2013-02-12 07:01:00,18.0,15.0,29.95,West,262,0.0,3.0,88,0.00,,,0.00,,2013-02-12 13:01:00,
2013-02-12 07:11:00,18.0,15.0,29.96,SSE,159,0.0,1.0,89,0.00,,,0.00,,2013-02-12 13:11:00,
2013-02-12 07:22:00,18.0,15.0,29.96,SSE,159,0.0,1.0,89,0.00,,,0.00,,2013-02-12 13:22:00,
2013-02-12 07:32:00,18.0,16.0,29.96,NNE,26,0.0,1.0,90,0.00,,,0.00,,2013-02-12 13:32:00,
2013-02-12 07:42:00,18.0,16.0,29.96,NNE,26,0.0,1.0,90,0.00,,,0.00,,2013-02-12 13:42:00,
2013-02-12 07:51:00,18.0,16.0,29.96,South,172,0.0,1.0,90,0.00,,,0.00,,2013-02-12 13:51:00,
2013-02-12 08:01:00,18.0,16.0,29.96,NNW,343,0.0,1.0,90,0.00,,,0.00,,2013-02-12 14:01:00,
2013-02-12 08:11:00,18.0,16.0,29.96,NNW,343,0.0,1.0,90,0.00,,,0.00,,2013-02-12 14:11:00,
2013-02-12 08:21:00,19.0,17.0,29.96,WSW,245,0.0,1.0,90,0.00,,,0.00,,2013-02-12 14:21:00,
2013-02-12 08:32:00,19.0,17.0,29.96,NW,308,0.0,1.0,90,0.00,,,0.00,,2013-02-12 14:32:00,
2013-02-12 08:42:00,19.0,17.0,29.96,NW,308,0.0,1.0,90,0.00,,,0.00,,2013-02-12 14:42:00,
2013-02-12 08:52:00,20.0,17.0,29.96,WNW,283,0.0,3.0,88,0.00,,,0.00,,2013-02-12 14:52:00,
2013-02-12 09:02:00,20.0,17.0,29.96,WSW,250,0.0,1.0,87,0.00,,,0.00,,2013-02-12 15:02:00,
2013-02-12 09:11:00,21.0,17.0,29.96,South,187,0.0,2.0,86,0.00,,,0.00,,2013-02-12 15:11:00,
2013-02-12 09:21:00,21.0,17.0,29.96,South,187,0.0,2.0,86,0.00,,,0.00,,2013-02-12 15:21:00,
2013-02-12 09:32:00,21.0,17.0,29.96,SE,146,0.0,3.0,84,0.00,,,0.00,,2013-02-12 15:32:00,
2013-02-12 09:42:00,21.0,17.0,29.96,SE,146,0.0,3.0,84,0.00,,,0.00,,2013-02-12 15:42:00,
2013-02-12 09:52:00,21.0,16.0,29.96,WNW,293,0.0,4.0,82,0.00,,,0.00,,2013-02-12 15:52:00,
2013-02-12 10:01:00,21.0,16.0,29.95,NNW,344,1.0,5.0,80,0.00,,,0.00,,2013-02-12 16:01:00,
2013-02-12 10:11:00,21.0,16.0,29.95,NNW,344,1.0,5.0,80,0.00,,,0.00,,2013-02-12 16:11:00,
2013-02-12 10:22:00,21.0,16.0,29.95,NW,305,0.0,5.0,80,0.00,,,0.00,,2013-02-12 16:22:00,
2013-02-12 10:32:00,21.0,16.0,29.95,WNW,297,0.0,5.0,79,0.00,,,0.00,,2013-02-12 16:32:00,
2013-02-12 10:41:00,21.0,16.0,29.95,WNW,297,0.0,5.0,79,0.00,,,0.00,,2013-02-12 16:41:00,
2013-02-12 10:51:00,21.0,16.0,29.95,WSW,257,0.0,5.0,82,0.00,,,0.00,,2013-02-12 16:51:00,
2013-02-12 11:01:00,22.0,16.0,29.95,West,262,1.0,3.0,78,0.00,,,0.00,,2013-02-12 17:01:00,
2013-02-12 11:12:00,22.0,16.0,29.95,West,262,1.0,3.0,78,0.00,,,0.00,,2013-02-12 17:12:00,
2013-02-12 11:21:00,22.0,17.0,29.95,North,353,0.0,4.0,80,0.00,,,0.00,,2013-02-12 17:21:00,
2013-02-12 11:32:00,22.0,16.0,29.94,NW,318,0.0,3.0,79,0.00,,,0.00,,2013-02-12 17:32:00,
2013-02-12 11:42:00,22.0,16.0,29.94,NW,318,0.0,3.0,79,0.00,,,0.00,,2013-02-12 17:42:00,
2013-02-12 11:52:00,22.0,16.0,29.93,SW,233,0.0,5.0,78,0.00,,,0.00,,2013-02-12 17:52:00,
2013-02-12 12:01:00,23.0,17.0,29.93,West,267,0.0,4.0,78,0.00,,,0.00,,2013-02-12 18:01:00,
2013-02-12 12:11:00,23.0,17.0,29.93,West,267,0.0,4.0,78,0.00,,,0.00,,2013-02-12 18:11:00,
2013-02-12 12:23:00,23.0,17.0,29.92,NW,319,1.0,4.0,77,0.00,,,0.00,,2013-02-12 18:23:00,
2013-02-12 12:32:00,24.0,17.0,29.91,NW,316,0.0,5.0,75,0.00,,,0.00,,2013-02-12 18:32:00,
2013-02-12 12:41:00,24.0,17.0,29.91,NW,316,0.0,5.0,75,0.00,,,0.00,,2013-02-12 18:41:00,
2013-02-12 12:51:00,24.0,17.0,29.90,WSW,248,0.0,3.0,75,0.00,,,0.00,,2013-02-12 18:51:00,
2013-02-12 13:02:00,24.0,18.0,29.90,SE,145,0.0,6.0,77,0.00,,,0.00,,2013-02-12 19:02:00,
2013-02-12 13:11:00,24.0,18.0,29.90,SE,145,0.0,6.0,77,0.00,,,0.00,,2013-02-12 19:11:00,
2013-02-12 13:21:00,24.0,17.0,29.90,West,271,0.0,4.0,75,0.00,,,0.00,,2013-02-12 19:21:00,
2013-02-12 13:31:00,25.0,19.0,29.89,West,259,0.0,3.0,76,0.00,,,0.00,,2013-02-12 19:31:00,
2013-02-12 13:41:00,25.0,19.0,29.89,West,259,0.0,3.0,76,0.00,,,0.00,,2013-02-12 19:41:00,
2013-02-12 13:51:00,25.0,18.0,29.88,WSW,252,0.0,5.0,75,0.00,,,0.00,,2013-02-12 19:51:00,
2013-02-12 14:01:00,25.0,19.0,29.88,SE,128,0.0,4.0,76,0.00,,,0.00,,2013-02-12 20:01:00,
2013-02-12 14:11:00,25.0,19.0,29.88,SE,128,0.0,4.0,76,0.00,,,0.00,,2013-02-12 20:11:00,
2013-02-12 14:21:00,24.0,18.0,29.88,SSE,149,0.0,4.0,76,0.00,,,0.00,,2013-02-12 20:21:00,
2013-02-12 14:31:00,25.0,19.0,29.88,WSW,258,0.0,4.0,78,0.00,,,0.00,,2013-02-12 20:31:00,
2013-02-12 14:41:00,25.0,19.0,29.88,WSW,258,0.0,4.0,78,0.00,,,0.00,,2013-02-12 20:41:00,
2013-02-12 14:52:00,25.0,19.0,29.88,WSW,253,1.0,5.0,77,0.00,,,0.00,,2013-02-12 20:52:00,
2013-02-12 15:01:00,25.0,19.0,29.87,WNW,295,0.0,4.0,78,0.00,,,0.00,,2013-02-12 21:01:00,
2013-02-12 15:11:00,25.0,19.0,29.87,WNW,295,0.0,4.0,78,0.00,,,0.00,,2013-02-12 21:11:00,
2013-02-12 15:21:00,25.0,19.0,29.87,WNW,287,1.0,5.0,77,0.00,,,0.00,,2013-02-12 21:21:00,
2013-02-12 15:31:00,24.0,19.0,29.86,NNE,25,0.0,6.0,80,0.00,,,0.00,,2013-02-12 21:31:00,
2013-02-12 15:42:00,24.0,19.0,29.86,SE,145,0.0,4.0,81,0.00,,,0.00,,2013-02-12 21:42:00,
2013-02-12 15:51:00,24.0,19.0,29.86,SE,145,0.0,4.0,81,0.00,,,0.00,,2013-02-12 21:51:00,
2013-02-12 16:01:00,24.0,18.0,29.85,SSE,165,0.0,2.0,79,0.00,,,0.00,,2013-02-12 22:01:00,
2013-02-12 16:12:00,24.0,18.0,29.85,SSE,165,0.0,2.0,79,0.00,,,0.00,,2013-02-12 22:12:00,
2013-02-12 16:21:00,23.0,18.0,29.85,SSE,167,0.0,5.0,82,0.00,,,0.00,,2013-02-12 22:21:00,
2013-02-12 16:32:00,23.0,18.0,29.85,WNW,301,0.0,3.0,81,0.00,,,0.00,,2013-02-12 22:32:00,
2013-02-12 16:41:00,23.0,18.0,29.85,WNW,301,0.0,3.0,81,0.00,,,0.00,,2013-02-12 22:41:00,
2013-02-12 16:51:00,23.0,19.0,29.84,South,174,0.0,1.0,83,0.00,,,0.00,,2013-02-12 22:51:00,
2013-02-12 17:01:00,22.0,18.0,29.84,SSE,158,0.0,4.0,84,0.00,,,0.00,,2013-02-12 23:01:00,
2013-02-12 17:11:00,22.0,18.0,29.84,WNW,283,0.0,2.0,85,0.00,,,0.00,,2013-02-12 23:11:00,
2013-02-12 17:21:00,22.0,18.0,29.84,WNW,283,0.0,2.0,85,0.00,,,0.00,,2013-02-12 23:21:00,
2013-02-12 17:32:00,21.0,17.0,29.84,ESE,106,0.0,1.0,86,0.00,,,0.00,,2013-02-12 23:32:00,
2013-02-12 17:42:00,21.0,17.0,29.84,ESE,106,0.0,1.0,86,0.00,,,0.00,,2013-02-12 23:42:00,
2013-02-12 17:52:00,20.0,17.0,29.84,ESE,106,0.0,0.0,88,0.00,,,0.00,,2013-02-12 23:52:00,
2013-02-12 18:02:00,20.0,17.0,29.85,NNW,339,0.0,4.0,89,0.00,,,0.00,,2013-02-13 00:02:00,
2013-02-12 18:11:00,20.0,17.0,29.85,NNW,339,0.0,4.0,89,0.00,,,0.00,,2013-02-13 00:11:00,
2013-02-12 18:21:00,20.0,17.0,29.85,NNW,339,0.0,4.0,89,0.00,,,0.00,,2013-02-13 00:21:00,
2013-02-12 18:32:00,21.0,18.0,29.85,NNE,32,0.0,2.0,89,0.00,,,0.00,,2013-02-13 00:32:00,
2013-02-12 18:42:00,21.0,18.0,29.85,NNE,32,0.0,2.0,89,0.00,,,0.00,,2013-02-13 00:42:00,
2013-02-12 18:52:00,21.0,18.0,29.85,WNW,290,0.0,3.0,88,0.00,,,0.00,,2013-02-13 00:52:00,
2013-02-12 19:01:00,21.0,18.0,29.85,SW,224,0.0,2.0,88,0.00,,,0.00,,2013-02-13 01:01:00,
2013-02-12 19:11:00,21.0,18.0,29.85,SW,224,0.0,2.0,88,0.00,,,0.00,,2013-02-13 01:11:00,
2013-02-12 19:21:00,21.0,18.0,29.84,SW,231,0.0,1.0,88,0.00,,,0.00,,2013-02-13 01:21:00,
2013-02-12 19:31:00,21.0,18.0,29.84,WNW,297,0.0,1.0,88,0.00,,,0.00,,2013-02-13 01:31:00,
2013-02-12 19:42:00,21.0,18.0,29.84,WNW,297,0.0,1.0,88,0.00,,,0.00,,2013-02-13 01:42:00,
2013-02-12 19:51:00,21.0,18.0,29.83,SSE,158,0.0,1.0,89,0.00,,,0.00,,2013-02-13 01:51:00,
2013-02-12 20:01:00,21.0,18.0,29.83,SW,216,0.0,1.0,89,0.00,,,0.00,,2013-02-13 02:01:00,
2013-02-12 20:11:00,21.0,18.0,29.83,SW,216,0.0,1.0,89,0.00,,,0.00,,2013-02-13 02:11:00,
2013-02-12 20:21:00,20.0,18.0,29.83,WSW,240,0.0,0.0,90,0.00,,,0.00,,2013-02-13 02:21:00,
2013-02-12 20:31:00,20.0,18.0,29.83,SW,221,0.0,1.0,91,0.00,,,0.00,,2013-02-13 02:31:00,
2013-02-12 20:41:00,20.0,18.0,29.83,SW,221,0.0,1.0,91,0.00,,,0.00,,2013-02-13 02:41:00,
2013-02-12 20:52:00,20.0,18.0,29.82,SSW,197,0.0,1.0,91,0.00,,,0.00,,2013-02-13 02:52:00,
2013-02-12 21:01:00,19.0,17.0,29.82,South,171,0.0,1.0,92,0.00,,,0.00,,2013-02-13 03:01:00,
2013-02-12 21:11:00,19.0,17.0,29.80,West,274,0.0,1.0,92,0.00,,,0.00,,2013-02-13 03:11:00,
2013-02-12 21:21:00,19.0,17.0,29.80,West,274,0.0,1.0,92,0.00,,,0.00,,2013-02-13 03:21:00,
2013-02-12 21:32:00,19.0,17.0,29.80,SE,143,0.0,0.0,92,0.00,,,0.00,,2013-02-13 03:32:00,
2013-02-12 21:41:00,19.0,17.0,29.80,SE,143,0.0,0.0,92,0.00,,,0.00,,2013-02-13 03:41:00,
2013-02-12 21:51:00,18.0,16.0,29.80,SE,145,0.0,0.0,93,0.00,,,0.00,,2013-02-13 03:51:00,
2013-02-12 22:01:00,18.0,16.0,29.79,SE,145,0.0,0.0,93,0.00,,,0.00,,2013-02-13 04:01:00,
2013-02-12 22:11:00,18.0,16.0,29.79,SE,145,0.0,0.0,93,0.00,,,0.00,,2013-02-13 04:11:00,
2013-02-12 22:21:00,17.0,15.0,29.79,SE,145,0.0,0.0,92,0.00,,,0.00,,2013-02-13 04:21:00,
2013-02-12 22:32:00,15.0,13.0,29.78,SE,145,0.0,0.0,92,0.00,,,0.00,,2013-02-13 04:32:00,
2013-02-12 22:41:00,15.0,13.0,29.78,SE,145,0.0,0.0,92,0.00,,,0.00,,2013-02-13 04:41:00,
2013-02-12 22:51:00,14.0,12.0,29.78,SE,145,0.0,0.0,92,0.00,,,0.00,,2013-02-13 04:51:00,
2013-02-12 23:01:00,13.0,11.0,29.78,SE,145,0.0,0.0,92,0.00,,,0.00,,2013-02-13 05:01:00,
2013-02-12 23:11:00,12.0,10.0,29.77,SE,145,0.0,0.0,92,0.00,,,0.00,,2013-02-13 05:11:00,
2013-02-12 23:22:00,12.0,10.0,29.77,SE,145,0.0,0.0,92,0.00,,,0.00,,2013-02-13 05:22:00,
2013-02-12 23:32:00,11.0,9.0,29.77,SE,146,0.0,0.0,92,0.00,,,0.00,,2013-02-13 05:32:00,
2013-02-12 23:42:00,11.0,9.0,29.77,SE,146,0.0,0.0,92,0.00,,,0.00,,2013-02-13 05:42:00,
2013-02-12 23:52:00,11.0,9.0,29.76,SE,145,0.0,0.0,92,0.00,,,0.00,,2013-02-13 05:52:00,